Location: Eimen
(51.8766°N, 9.7806°E)
Time: 09:49:14
(UTC+00:00)

CZ-2C R/B - Pass Details

Date: 23 May 2024
Orbit: 784 x 868 km, 98.3° (Epoch: 18 June)

Event Time Altitude Azimuth Distance (km) Brightness Sun altitude
Exits shadow 00:47:48 - 148° (SSE) 2,689 5.0 -14.9°
Reaches altitude 10° 00:48:41 10° 147° (SSE) 2,339 4.7 -14.8°
Maximum altitude 00:53:43 58° 69° (ENE) 916 3.1 -14.5°
Drops below altitude 10° 00:58:49 10° 351° (N) 2,366 5.9 -14.2°
Sets 01:01:12 0° 348° (NNW) 3,307 6.7 -14.0°
